OBJECT B, 64088

Orbit data source: Space-Track

You're viewing an Uncataloged Satellite

Recently launched and/or uncataloged satellites may have evolving metadata. Metadata may include but not limited to: Owner, Maufacturer, Bus, Motor, and Mission.

OBJECT B, 64088 is a satellite owned by Weina (CN) in SSO that was launched on Wed, 21 May 2025 UTC via a LIJIAN-1 launch vehicle from the Jiuquan Satellite Launch Center, China (JSC). Unknown objects in Earth's orbit typically refer to objects detected orbiting the Earth but have not yet been identified or cataloged. These objects could be anything from previously untracked satellites, spent rocket stages, debris from satellite collisions, or even natural meteoroids temporarily captured by Earth's gravity.

Loading next visibility...
Identifier
64088, 2025-108B
Orbit
SSO
Country
Flag of CNCN / PRC
Related business
Manufacturer
Weina
Mission
Operational Commercial Imaging
Bus & Motor
MN200, Unknown motor
Mass
350 kg wet, 350 kg dry
Launch date (UTC)
2025-05-21 (1 year ago)
Launch vehicle
LIJIAN-1
Launch site
Jiuquan Satellite Launch Center, China (JSC)
Object type
Unknown
Shape & HBR
Box + Cyl + 2 Pan, 2.8 m
Radar Cross Section
2.585 m², Large (>1 m²)

Expand to show TLE details & history
Last TLE update: 9 hours ago

TLE from 9 hours ago
0 OBJECT B
1 64088U 25108B   26171.48441348  .00006731  00000-0  32906-3 0  9995
2 64088  97.4722 247.2508 0007472  12.0397 348.1014 15.18533470 59865
Epoch: 2026-06-20T11:37Z
TLE epoch observation values (Epoch: 2026-06-20T11:37:33.324Z)
Latitude
-0.00007°
Longitude
164.16359°
Altitude
508.321 km
Speed
7.613 km/s
True Right ascension
16h 29m 00s
True Declination
0° 00' 00"
Sunlit
Object was in full shadow at epoch
Visualization orbit readout
Latitude
Unknown
Longitude
Unknown
Altitude
Unknown
Speed
Unknown
Apparent Right ascension
Unknown
Apparent Declination
Unknown
Sunlit
N/A
Visualization observer readout
Local Sidereal Time
07:20:19
Azimuth
Unknown
Elevation
Unknown
Doppler factor
Unknown
Orbital elements
Apogee altitude
512.387 km
Perigee altitude
502.098 km
Semi-major axis
6,885.38 km
Eccentricity
0.00075
Inclination
97.4722°
RAAN
247.2508°
Arg. of periapsis
12.0397°
True anomaly
348.08373°
Mean anomaly
348.1014°
Eccentric anomaly
348.09257°
Mean motion
3.79884 °/min
Orbital period
94.77 mins
BSTAR
0.00032906
Loading maneuver chart data...
Computing Atmospheric mass density...
Loading historical data...
Loading historical data...
Loading historical data...
Loading historical data...
Loading historical data...
Loading historical data...
Loading historical data...
Other satellites on launch #108 in the year 2025 (2025-05-21 UTC)

Documentation

Showing up to 5 results
|